Regional Weather Roundup
Issued by NWS Upton, NY

Current Version | Previous Version | Text Only | Print | Product List | Glossary On
Versions: 1 2 3 4 5 6 7 8 9 10 11 12 13 14 15 16 17 18 19 20 21 22 23 24 25 26 27 28 29 30 31 32 33 34 35 36 37 38 39 40 41 42 43 44 45 46 47 48 49 50
000
ASUS41 KOKX 202007
RWROKX

REGIONAL WEATHER ROUNDUP
NATIONAL WEATHER SERVICE NEW YORK NY
400 PM EDT MON APR 20 2015

NOTE: "FAIR" INDICATES FEW OR NO CLOUDS BELOW 12,000 FEET WITH NO
SIGNIFICANT WEATHER AND/OR OBSTRUCTIONS TO VISIBILITY.

NYZ071-072-176-178-NJZ106-104-202100-
NEW YORK CITY METRO AREA


CITY           SKY/WX    TMP DP  RH WIND       PRES   REMARKS
CENTRAL PARK   CLOUDY    55  55 100 E8        29.68F FOG
LAGUARDIA APRT LGT RAIN  52  51  97 NE9       29.66F VSB 1/4
KENNEDY INTL   FOG       55  53  93 SE6       29.66F VSB<1/4
NEWARK/LIBERTY DRZL/FOG  57  56  96 NE7       29.66S VSB 1/4
BRNX BOT. GARD   N/A     54  54 100 E7        29.66F
TETERBORO      LGT RAIN  57  54  88 NE8       29.65F
$$

NYZ177-179-078>081-202100-
LONG ISLAND NEW YORK

CITY           SKY/WX    TMP DP  RH WIND       PRES   REMARKS
FARMINGDALE    FOG       54  54 100 SE10      29.67F VSB 1/2
ISLIP          LGT RAIN  53  52  96 SE15G26   29.67F VSB 3/4
SHIRLEY        LGT RAIN  52  51  97 SE10G22   29.71S FOG
WESTHAMPTON    LGT RAIN  52  51  97 SE17G26   29.73S VSB 1
MONTAUK POINT    N/A     53  50  89 SE16G32   29.77F
$$

NYZ052-065-067-202100-
HUDSON VALLEY

CITY           SKY/WX    TMP DP  RH WIND       PRES   REMARKS
WHITE PLAINS     N/A     53  52  96 E12       29.67F FOG
NEWBURGH       LGT RAIN  54  54 100 E12G17    29.69F FOG
MONTGOMERY     CLOUDY    55  32  41 NE8       29.67F
POUGHKEEPSIE   CLOUDY    58  52  80 E7        29.68F
ALBANY         LGT RAIN  54  45  71 SE8G24    29.75F
$$

NJZ001-105-106-008-010-013-015-019>022-104-202100-
NEW JERSEY

CITY           SKY/WX    TMP DP  RH WIND       PRES   REMARKS
NEWARK/LIBERTY DRZL/FOG  57  56  96 NE7       29.66S VSB 1/4
TETERBORO      LGT RAIN  57  54  88 NE8       29.65F
CALDWELL       CLOUDY    56  55  97 E10       29.66F FOG
MORRISTOWN     CLOUDY    55  55 100 NE6       29.66F FOG
SOMERVILLE     CLOUDY    61  57  87 N3        29.63S
SUSSEX         CLOUDY    55  52  89 N10       29.67F FOG
ANDOVER          N/A     57  54  89 VRB3      29.65F
TRENTON        SUNNY     71  60  68 VRB3      29.60F
MILLVILLE      MOSUNNY   74  63  68 VRB7G18   29.61F
ATLANTIC CITY  MOSUNNY   67  59  75 S10       29.63F
WRIGHTSTOWN    CLOUDY    72  65  80 E6        29.57F
TOMS RIVER     CLOUDY    73  64  73 SE8       29.62F
BELMAR         CLOUDY    64  59  82 SE7       29.63F
$$

PAZ047>061-062-071-202100-
EASTERN PENNSYLVANIA

CITY           SKY/WX    TMP DP  RH WIND       PRES   REMARKS
PHILADELPHIA   PTSUNNY   76  63  64 VRB6      29.59F
ALLENTOWN      CLOUDY    60  57  89 E10       29.62F
SCRANTON       CLOUDY    64  53  67 VRB6G17   29.60F
$$

CTZ002-004>006-009-010-012-RIZ004-006-007-MAZ004-011-015-202100-
SOUTHERN NEW ENGLAND
 IN CT

CITY           SKY/WX    TMP DP  RH WIND       PRES   REMARKS
BRADLEY INTL   LGT RAIN  51  48  89 NE12      29.80F FOG
HARTFORD       LGT RAIN  54  51  90 SE8       29.77F FOG
DANBURY        LGT RAIN  54  52  93 E12       29.73F FOG
WTRBRY/OXFORD  LGT RAIN  54  48  82 E13G22    29.75F FOG
BRIDGEPORT     LGT RAIN  50  49  96 NE12      29.71F FOG
MERIDEN        LGT RAIN  55  51  86 E3        29.76F FOG
NEW HAVEN      LGT RAIN  51  50  96 E14G25    29.72F FOG
CHESTER        LGT RAIN  52  52 100 SE13G28   29.76F
GROTON         LGT RAIN  50  48  93 E22G32    29.76F FOG
WILLIMANTIC    RAIN      54  51  90 E8        29.81F FOG

 IN RI

CITY           SKY/WX    TMP DP  RH WIND       PRES   REMARKS
PROVIDENCE     HVY RAIN  51  49  92 E14G22    29.86F VSB 1
BLOCK ISLAND   CLOUDY    50  46  87 SE22G30   29.80F
WESTERLY       CLOUDY    49  48  97 E15       29.80F FOG

 IN MA

CITY           SKY/WX    TMP DP  RH WIND       PRES   REMARKS
BOSTON         LGT RAIN  45  42  89 E17       29.95F FOG
WORCESTER      RAIN      44  42  93 E13       29.87F VSB 1/4
WESTFIELD      LGT RAIN  48  45  89 NE9       29.84F FOG
PROVINCETOWN   CLOUDY   N/A N/A N/A E17G30    29.95F
NANTUCKET      LGT RAIN  50  47  89 SE29G38   29.89F FOG
$$

ANZ330-335-338-340-345-350-353-355-202100-
COASTAL MARINE OBSERVATIONS


STATION/POSITION TIME  SKY/WX   TEMP    WIND        PRES    VSBY  WAVE
                                AIR SEA DIR/SP/G                  HT/PER
                 (UTC)          (F)     (DEG/KT/KT) (MB)    (MI)  (FT/S)
NY HARB ENTRANCE 1950            48 44  170/ 12/ 14 1003.7          8/ 8
4S FIRE IS       1903               44                N/A           9/ 7
20S FIRE ISLAND  1850               44              1005.3         10/ 9
23SW MTP         NOT AVBL
HUDSON CANYON    NOT AVBL
EXECUTION ROCKS  NOT AVBL
WESTERN LI SOUND NOT AVBL
CENTRAL LI SOUND NOT AVBL
EASTERN LI SOUND 1900            47      80/ 19/ 25   N/A
ROBBINS REEF     1900            55     130/ 15/ 17 1003.2
$$


>>>>>>>>>>>>>>>>>>>>>>>>>>>> KEY <<<<<<<<<<<<<<<<<<<<<<<<<<<
>                                                          <
>     SKY/WX - SKY CONDITION/PRESENT WEATHER               <
>     TMP    - TEMPERATURE IN FAHRENHEIT                   <
>     DP     - DEWPOINT IN FAHRENHEIT                      <
>     RH     - RELATIVE HUMIDITY IN PERCENT                <
>     WIND   - DIRECTION AND SPEED IN MPH                  <
>     PRES   - MEAN SEA LEVEL PRESSURE IN INCHES OF HG     <
>     WCI    - WIND CHILL INDEX                            <
>     VSB    - VISIBILITY IN MILES                         <
>     HX     - HEAT INDEX                                  <
>     TC     - TEMPERATURE IN CELSIUS                      <
>     VRB    - VARIABLE WIND DIRECTION                     <
>                                                          <
>>>>>>>>>>>>>>>>>>>>>>>>>>>> KEY <<<<<<<<<<<<<<<<<<<<<<<<<<<





USA.gov is the U.S. government's official web portal to all federal, state and local government web resources and services.